Simultaneous Nadir Overpasses (SNOs) Predictions

Prediction of SNOs between GOES-17 and METOP-B Satellite Orbit:

Table of predicted SNOs for the next 14.0 days since TLE Epoch: 6/14/2024
Index Date Time (GOES-17) GOES-17 Lat,Lon METOP-B Lat,Lon Distance(km) Time Diff (sec)
1 06/16/2024 04:31:30 0.02,-104.70 -0.49,-106.98 259.57 80
2 06/17/2024 04:08:08 0.02,-104.70 0.65,-101.98 310.54 80
3 06/18/2024 16:29:33 0.01,-104.72 0.41,-106.52 205.79 80
4 06/19/2024 16:06:10 0.01,-104.71 -0.68,-101.51 364.11 80
5 06/21/2024 04:27:45 -0.01,-104.70 -0.32,-106.11 160.74 80
6 06/22/2024 04:04:21 0.00,-104.69 0.77,-101.10 408.70 80
7 06/23/2024 16:25:42 -0.01,-104.70 0.22,-105.65 109.36 74
8 06/24/2024 16:05:05 -0.02,-104.69 -0.94,-100.66 460.08 80
9 06/26/2024 04:23:59 0.03,-104.67 -0.10,-105.24 64.82 80
10 06/28/2024 16:19:22 -0.04,-104.68 -0.02,-104.79 12.54 80
